Location: Allos
(44.2333°N, 6.6333°E)
Time: 00:02:37
(UTC+00:00)

Cosmos 2228 Rocket - Visible Passes

Search period start: 23 April 2021 00:00
Search period end: 03 May 2021 00:00
Orbit: 617 x 653 km, 82.5° (Epoch: 22 April)

Date Brightness Start Highest point End Pass type
(mag) Time Alt. Az. Time Alt. Az. Time Alt. Az.
23 Apr 5.1 00:32:50 23° NNW 00:32:50 23° NNW 00:34:50 10° N visible
23 Apr 5.3 23:17:28 21° NNE 23:17:28 21° NNE 23:19:05 10° NNE visible
24 Apr 5.4 00:54:56 16° NW 00:54:56 16° NW 00:56:30 10° NNW visible
24 Apr 5.0 23:39:33 28° N 23:39:33 28° N 23:41:39 10° N visible
25 Apr 5.7 22:24:10 12° NE 22:24:10 12° NE 22:24:39 10° NE visible
26 Apr 5.0 00:01:38 27° NNW 00:01:38 27° NNW 00:03:52 10° N visible
26 Apr 5.2 22:46:14 20° NE 22:46:14 20° NE 22:47:53 10° NNE visible
27 Apr 5.3 00:23:42 19° NW 00:23:42 19° NW 00:25:41 10° NNW visible
27 Apr 4.8 23:08:17 30° NNE 23:08:17 30° NNE 23:10:33 10° NNE visible
28 Apr 5.7 00:45:46 11° NW 00:45:46 11° NW 00:46:31 10° NW visible
28 Apr 5.7 21:52:52 11° NE 21:52:52 11° NE 21:53:07 10° NE visible
28 Apr 4.7 23:30:20 32° NNW 23:30:20 32° NNW 23:32:52 10° N visible
29 Apr 5.1 22:14:54 20° NE 22:14:54 20° NE 22:16:39 10° NNE visible
29 Apr 5.1 23:52:22 23° NW 23:52:22 23° NW 23:54:49 10° NNW visible
30 Apr 4.6 22:36:55 32° NNE 22:36:55 32° NNE 22:39:26 10° NNE visible
01 May 5.6 00:14:23 14° WNW 00:14:23 14° WNW 00:16:05 10° NW visible
01 May 4.3 22:58:56 39° N 22:58:56 39° N 23:01:51 10° N visible
02 May 5.0 21:43:27 19° ENE 21:43:27 19° ENE 21:45:22 10° NE visible
02 May 4.7 23:20:55 29° NW 23:20:55 29° NW 23:23:54 10° N visible
